Weather Roundup
Issued by NWS

Home | Current Version | Previous Version | Graphics & Text | Print | Product List | Glossary Off
Versions: 1 2 3 4 5 6 7 8 9 10 11 12 13 14 15 16 17 18 19 20 21 22 23 24 25 26 27 28 29 30 31 32 33 34 35 36 37 38 39 40 41 42 43 44 45 46 47 48 49 50

000
NZUS93 KARX 280710
HRRWXR

CURRENT HOURLY OBSERVATIONS ACROSS
MUCH OF THE UPPER MISSISSIPPI VALLEY
NATIONAL WEATHER SERVICE LA CROSSE WI
200 AM CDT TUE MAR 28 2017


...SOUTHEAST MINNESOTA...


CITY           SKY/WX    TMP DP  RH WIND       PRES   REMARKS
ROCHESTER      FOG       36  36 100 NE5       30.04R VSB 3/4 WCI  32
ROCHESTER/MAYO FAIR      38  38 100 CALM      30.05R
WINONA         CLOUDY    34  34 100 CALM      30.06R
AUSTIN         CLEAR     36  34  93 CALM      30.04R FOG
ALBERT LEA     CLEAR     34  34 100 CALM      30.04R FOG
DODGE CENTER   FOG       36  34  93 CALM      30.05R VSB 1/4
PRESTON        CLOUDY    39  36  91 CALM      30.04R
OWATONNA       CLEAR     32  30  93 CALM      30.05R
FARIBAULT      MOCLDY    34  34 100 CALM      30.06R FOG
$$

...ELSEWHERE IN MINNESOTA...


CITY           SKY/WX    TMP DP  RH WIND       PRES   REMARKS
MINNEAPOLIS    CLOUDY    43  36  76 SW3       30.05R
INTNL FALLS    CLOUDY    40  27  59 NE5       30.06R
DULUTH         CLEAR     31  27  85 CALM      30.05R
RED WING       CLOUDY    30  30 100 CALM      30.05R FOG
REDWOOD FALLS  PTCLDY    41  33  73 SW3       30.05R
MANKATO        MOCLDY    41  39  93 S5        30.05R
WORTHINGTON    CLOUDY    35  33  92 W5        30.06R WCI  31
FAIRMONT       CLOUDY    37  35  92 NW3       30.05R
$$

...SOUTHWEST WISCONSIN...


CITY           SKY/WX    TMP DP  RH WIND       PRES   REMARKS
LA CROSSE      CLEAR     38  36  92 N5        30.04S WCI  34
PRAIRIE DU CHI CLOUDY    45  42  91 N5        30.02S
BOSCOBEL       CLOUDY    46  43  89 N3        30.03R
LONE ROCK      CLOUDY    46  42  86 N8        30.03R FOG
PLATTEVILLE    MOCLDY    45  45 100 CALM      30.02R
FORT MC COY    CLOUDY    39  38  95 N3        30.06R
CAMP DOUGLAS   CLOUDY    39  39 100 CALM      30.04R
MAUSTON-NEW LI CLOUDY    41  40  95 CALM      30.03R
VIROQUA        CLOUDY    41  41  99 CALM      30.03R
WIS DELLS      CLOUDY    41  40  97 NE5       30.04R FOG
$$

...ELSEWHERE IN WISCONSIN...


CITY           SKY/WX    TMP DP  RH WIND       PRES   REMARKS
MILWAUKEE      CLOUDY    40  34  79 N9        30.02R WCI  34
MADISON        CLOUDY    42  41  96 N5        30.01S FOG
GREEN BAY      CLOUDY    38  37  97 CALM      30.04R
EAU CLAIRE     PTCLDY    30  29  96 CALM      30.05R
BLACK RVR FLS  FAIR      28  28 100 CALM      30.05R
MEDFORD        CLEAR     30  29  99 CALM      30.03S
WAUSAU         CLEAR     30  30 100 CALM      30.03R
WIS RAPIDS     CLOUDY    40  39  97 CALM      30.06R
MARSHFIELD     PTCLDY    33  31  92 N3        30.03R
RICE LAKE      CLEAR     30  29  98 CALM      30.06S
$$

...NORTHEAST IOWA...


CITY           SKY/WX    TMP DP  RH WIND       PRES   REMARKS
WATERLOO       CLOUDY    44  41  89 CALM      30.02R
DUBUQUE        CLOUDY    45  45 100 NE6       30.01R FOG
DECORAH        CLOUDY    43  41  93 N5        30.02R
MASON CITY     FOG       32  31  96 NW3       30.05R VSB 1/2
CHARLES CITY   CLOUDY    43  43 100 N3        30.03R
OELWEIN        CLOUDY    45  45 100 NE6       30.02R
$$

...ELSEWHERE IN IOWA...


CITY           SKY/WX    TMP DP  RH WIND       PRES   REMARKS
DES MOINES     CLOUDY    48  41  76 N3        30.04R
IOWA CITY      CLOUDY    50  45  83 CALM      30.02R
FORT DODGE     CLOUDY    34  30  86 CALM      30.05R VSB 3/4
MARSHALLTOWN   CLOUDY    45  43  93 N5        30.01R
CEDAR RAPIDS   CLOUDY    46  46 100 N5        30.00R
$$

...NORTHERN ILLINOIS...


CITY           SKY/WX    TMP DP  RH WIND       PRES   REMARKS
CHICAGO-OHARE  CLOUDY    42  36  79 N9        29.98F
CHICAGO-MIDWAY CLOUDY    42  36  79 NE8       29.98F
MOLINE         CLOUDY    50  44  80 N3        29.99S
ROCKFORD       DRIZZLE   45  41  86 E6        30.02R FOG
PEORIA         CLOUDY    51  49  92 N3        29.98S
$$

NOTE: "FAIR" INDICATES FEW OR NO CLOUDS BELOW 12,000 FEET WITH NO
SIGNIFICANT WEATHER AND/OR OBSTRUCTIONS TO VISIBILITY. WIND
SPEEDS ARE IN MILES-PER-HOUR.




USA.gov is the U.S. government's official web portal to all federal, state and local government web resources and services.